Date String (YYYY-MM-DD hh:mm:ss) UTC,Instrument flags,Ambient pressure (hPa),Sample flow (lpm),Bypass flow (lpm),Sample temperature (°C),Ambient temperature (°C),ASC tube jacket temperature (°C),LED temperature (°C),Box temperature (°C),Sample RH (%),Span deviation,Mass concentration (μg/m³),Mass concentration (μg/m³),Mass concentration (μg/m³)
DateTimeUTC,F1_M11,P_M11,Q1_M11,Q2_M11,T1_M11,T2_M11,T3_M11,T4_M11,T5_M11,U1_M11,ZSPAN_M11,X0_M11,X2_M11,X1_M11
2021-09-27 22:00:00,,0824.3,5.00,0.00,29.0,27.1,00.0,38.0,30.8,12.5,0003.2,0016.78,0006.18,0004.75
2021-09-27 22:01:00,,0824.3,5.01,0.00,29.0,27.4,00.0,38.0,30.9,11.6,0003.3,0016.75,0006.12,0004.75
2021-09-27 22:02:00,,0824.3,4.99,0.00,29.1,27.8,00.0,38.0,31.0,11.4,0003.2,0016.90,0006.11,0004.74
2021-09-27 22:03:00,,0824.3,4.99,0.00,29.2,28.1,00.0,38.0,31.1,11.6,0002.9,0017.62,0006.07,0004.74
2021-09-27 22:04:00,,0824.3,5.01,0.00,29.2,27.2,00.0,38.1,30.9,11.6,0003.2,0018.43,0006.05,0004.72
2021-09-27 22:05:00,,0824.3,4.99,0.00,29.0,25.7,00.0,38.1,30.4,11.9,0003.0,0018.86,0005.94,0004.69
2021-09-27 22:06:00,,0824.2,5.01,0.00,28.9,25.9,00.0,38.0,30.4,11.9,0002.6,0018.11,0005.87,0004.66
2021-09-27 22:07:00,,0824.2,4.98,0.00,28.9,26.3,00.0,38.0,30.6,11.9,0002.2,0016.82,0005.78,0004.65
2021-09-27 22:08:00,,0824.2,5.01,0.00,29.0,26.8,00.0,38.0,30.7,12.2,0002.0,0017.17,0005.79,0004.65
2021-09-27 22:09:00,,0824.2,4.99,0.00,29.0,27.3,00.0,38.0,30.8,11.9,0001.6,0017.37,0005.79,0004.66
2021-09-27 22:10:00,,0824.2,5.00,0.00,29.1,27.7,00.0,38.0,31.0,12.0,0001.8,0017.22,0005.86,0004.69
2021-09-27 22:11:00,,0824.2,5.00,0.00,29.1,28.0,00.0,38.0,31.1,12.3,0001.6,0016.34,0005.87,0004.68
2021-09-27 22:12:00,,0824.2,5.01,0.00,29.2,28.2,00.0,38.1,31.1,12.1,0001.7,0015.70,0005.84,0004.70
2021-09-27 22:13:00,,0824.2,5.01,0.00,29.2,27.4,00.0,38.1,30.9,11.9,0001.9,0015.65,0005.79,0004.70
2021-09-27 22:14:00,,0824.3,4.99,0.00,29.1,25.8,00.0,38.1,30.4,12.2,0002.0,0014.67,0005.79,0004.72
2021-09-27 22:15:00,,0824.3,5.01,0.00,29.0,25.9,00.0,38.1,30.4,12.0,0001.3,0014.08,0005.77,0004.73
2021-09-27 22:16:00,,0824.2,4.99,0.00,29.0,26.3,00.0,38.0,30.6,11.7,0001.7,0013.11,0005.77,0004.74
2021-09-27 22:17:00,,0824.3,4.99,0.00,29.0,26.8,00.0,38.0,30.7,11.4,0002.1,0013.00,0005.72,0004.74
2021-09-27 22:18:00,,0824.2,5.01,0.00,29.0,27.2,00.0,38.0,30.8,11.2,0002.8,0013.35,0005.71,0004.74
2021-09-27 22:19:00,,0824.2,4.99,0.00,29.1,27.7,00.0,38.0,30.9,10.9,0003.0,0013.21,0005.69,0004.73
2021-09-27 22:20:00,,0824.2,5.01,0.00,29.2,28.0,00.0,38.1,31.1,11.2,0003.1,0012.90,0005.64,0004.71
2021-09-27 22:21:00,,0824.4,4.98,0.00,29.2,28.3,00.0,38.1,31.2,11.1,0003.3,0013.13,0005.59,0004.70
2021-09-27 22:22:00,,0824.2,5.01,0.00,29.3,27.6,00.0,38.1,30.9,11.2,0003.1,0014.40,0005.61,0004.71
2021-09-27 22:23:00,,0824.2,4.99,0.00,29.1,25.9,00.0,38.1,30.4,11.3,0002.9,0014.81,0005.70,0004.72
2021-09-27 22:24:00,,0824.3,5.00,0.00,29.0,25.9,00.0,38.1,30.4,11.6,0002.6,0014.94,0005.78,0004.73
2021-09-27 22:25:00,,0824.2,5.00,0.00,29.0,26.3,00.0,38.1,30.6,11.7,0002.3,0015.21,0005.83,0004.74
2021-09-27 22:26:00,,0824.2,5.01,0.00,29.0,26.8,00.0,38.0,30.6,11.6,0002.6,0014.87,0005.87,0004.75
2021-09-27 22:27:00,,0824.3,5.01,0.00,29.0,27.2,00.0,38.0,30.8,11.7,0002.3,0015.23,0005.93,0004.78
2021-09-27 22:28:00,,0824.2,5.00,0.00,29.1,27.6,00.0,38.0,30.9,11.7,0002.1,0015.57,0005.95,0004.82
2021-09-27 22:29:00,,0824.2,5.01,0.00,29.1,27.9,00.0,38.1,31.0,11.7,0001.8,0015.71,0005.95,0004.85
2021-09-27 22:30:00,,0824.3,5.00,0.00,29.2,28.2,00.0,38.1,31.1,11.8,0001.6,0015.68,0005.96,0004.88
2021-09-27 22:31:00,,0824.3,4.99,0.00,29.3,28.3,00.0,38.1,31.2,11.7,0001.3,0016.80,0006.06,0004.92
2021-09-27 22:32:00,,0824.2,5.00,0.00,29.2,26.8,00.0,38.1,30.7,11.7,0000.8,0017.07,0006.06,0004.93
2021-09-27 22:33:00,,0824.3,5.01,0.00,29.0,25.7,00.0,38.1,30.3,11.8,0001.0,0015.63,0006.04,0004.96
2021-09-27 22:34:00,,0824.2,5.00,0.00,29.0,26.0,00.0,38.1,30.4,12.1,0001.0,0016.18,0006.01,0004.98
2021-09-27 22:35:00,,0824.2,4.99,0.00,29.0,26.5,00.0,38.1,30.6,12.2,0001.1,0017.52,0006.06,0004.98
2021-09-27 22:36:00,,0824.2,5.00,0.00,29.0,27.0,00.0,38.0,30.8,12.1,0001.2,0017.87,0006.07,0004.98
2021-09-27 22:37:00,,0824.2,5.01,0.00,29.1,27.4,00.0,38.0,30.9,11.9,0000.8,0019.82,0006.07,0004.97
2021-09-27 22:38:00,,0824.2,5.02,0.00,29.1,27.8,00.0,38.1,31.0,12.1,0000.4,0019.88,0006.07,0004.95
2021-09-27 22:39:00,,0824.2,5.01,0.00,29.2,27.9,00.0,38.1,31.0,12.2,0000.8,0020.05,0006.10,0004.94
2021-09-27 22:40:00,,0824.2,5.00,0.00,29.1,26.6,00.0,38.1,30.7,11.7,0000.8,0020.07,0006.10,0004.92
2021-09-27 22:41:00,,0824.2,5.00,0.00,29.0,25.5,00.0,38.0,30.3,12.0,0000.7,0021.19,0006.13,0004.91
2021-09-27 22:42:00,,0824.2,4.99,0.00,28.9,25.9,00.0,38.0,30.4,11.8,0000.8,0022.82,0006.18,0004.91
2021-09-27 22:43:00,,0824.2,5.01,0.00,28.9,26.3,00.0,38.0,30.5,12.0,0001.0,0023.26,0006.17,0004.89
2021-09-27 22:44:00,,0824.2,5.00,0.00,28.9,26.7,00.0,38.0,30.6,12.3,0001.2,0023.77,0006.15,0004.88
2021-09-27 22:45:00,,0824.2,5.00,0.00,28.9,27.1,00.0,38.0,30.8,12.0,0001.7,0024.25,0006.19,0004.87
2021-09-27 22:46:00,,0824.2,4.99,0.00,29.0,27.5,00.0,38.0,30.9,12.2,0001.9,0022.47,0006.21,0004.87
2021-09-27 22:47:00,,0824.1,5.00,0.00,29.1,27.8,00.0,38.0,31.0,12.3,0002.1,0022.42,0006.20,0004.88
2021-09-27 22:48:00,,0824.2,4.99,0.00,29.2,28.2,00.0,38.0,31.1,12.5,0002.4,0021.66,0006.21,0004.89
2021-09-27 22:49:00,,0824.2,5.00,0.00,29.2,28.4,00.0,38.1,31.2,12.5,0002.9,0022.33,0006.26,0004.92
2021-09-27 22:50:00,,0824.2,5.00,0.00,29.2,27.1,00.0,38.1,30.8,12.2,0003.0,0022.24,0006.28,0004.94
2021-09-27 22:51:00,,0824.3,5.01,0.00,29.1,25.7,00.0,38.1,30.4,12.2,0002.7,0022.39,0006.33,0004.95
2021-09-27 22:52:00,,0824.2,5.00,0.00,29.0,26.0,00.0,38.1,30.4,11.9,0002.7,0022.55,0006.35,0004.96
2021-09-27 22:53:00,,0824.3,5.01,0.00,29.0,26.4,00.0,38.0,30.6,11.9,0002.3,0021.92,0006.31,0004.98
2021-09-27 22:54:00,,0824.2,5.00,0.00,29.0,26.9,00.0,38.0,30.7,11.9,0002.6,0019.96,0006.29,0005.00
2021-09-27 22:55:00,,0824.2,4.99,0.00,29.0,27.3,00.0,38.0,30.8,12.0,0002.0,0020.45,0006.33,0005.03
2021-09-27 22:56:00,,0824.2,5.00,0.00,29.1,27.6,00.0,38.0,30.9,12.0,0001.6,0020.21,0006.31,0005.04
2021-09-27 22:57:00,,0824.2,5.00,0.00,29.2,27.9,00.0,38.1,31.0,12.3,0001.3,0019.65,0006.26,0005.04
2021-09-27 22:58:00,,0824.2,5.01,0.00,29.1,26.8,00.0,38.1,30.7,12.5,0001.2,0019.44,0006.25,0005.05
2021-09-27 22:59:00,,0824.1,5.00,0.00,29.0,25.6,00.0,38.0,30.3,12.4,0001.4,0019.37,0006.24,0005.07
